This demonstration page uses our WeatherBlox Daily Observations layout. Learn more.

38.89511, -77.03637

Hourly Observations for November 13, 2017

Temp ( °F °C ) Dew Point ( °F °C ) Humidity (%) Winds ( mph kmh ) Pressure ( in mb ) Visibility ( mi km ) Precip ( " mm )
12:52 am 00:52 Cloudy with Light Rain 41 5 36 2.2 82 82 NE 6 9 30.33 1027 10 16.09344 0.02 0.508
1:52 am 01:52 Cloudy with Rain 41 5 37 2.8 86 86 N 3 6 30.33 1027 5 8.04672 0.04 1.016
2:36 am 02:36 Cloudy with Light Rain 41 5 38 3.3 89 89 NE 3 6 30.33 1027 8 12.874752 0.05 1.27
2:52 am 02:52 Cloudy with Light Rain 41 5 39 3.9 93 93 ENE 3 6 30.33 1027 8 12.874752 0.06 1.524
3:37 am 03:37 Cloudy with Light Rain 41 5 40 4.4 96 96 N 5 7 30.33 1027 8 12.874752 0.01 0.254
3:52 am 03:52 Cloudy 41 5 40 4.4 96 96 N 5 7 30.33 1027 10 16.09344 0.01 0.254
4:00 am 04:00 Cloudy 41 5 40 4.4 96 96 N 3 6 30.33 1027 10 16.09344 0 0
4:08 am 04:08 Cloudy 41 5 40 4.4 96 96 N 3 6 30.33 1027 10 16.09344 0 0
4:52 am 04:52 Cloudy with Light Rain 42 5.6 39 3.9 89 89 N 5 7 30.33 1027 10 16.09344 0.001 0.001
5:12 am 05:12 Cloudy 42 5.6 40 4.4 92 92 N 5 7 30.33 1027 10 16.09344 0.001 0.001
5:40 am 05:40 Cloudy 42 5.6 39 3.9 89 89 ENE 5 7 30.33 1027 10 16.09344 0.001 0.001
5:52 am 05:52 Cloudy 42 5.6 39 3.9 89 89 E 7 11 30.3 1026 10 16.09344 0.001 0.001
6:52 am 06:52 Cloudy 42 5.6 40 4.4 92 92 NE 7 11 30.3 1026 10 16.09344 0 0
7:52 am 07:52 Cloudy 42 5.6 40 4.4 92 92 NE 6 9 30.33 1027 10 16.09344 0 0
8:11 am 08:11 Cloudy 42 5.6 40 4.4 92 92 ENE 7 11 30.36 1028 10 16.09344 0 0
8:34 am 08:34 Cloudy 43 6.1 40 4.4 89 89 ENE 7 11 30.36 1028 9 14.484096 0 0
8:52 am 08:52 Cloudy 43 6.1 40 4.4 89 89 NE 6 9 30.33 1027 9 14.484096 0 0
9:20 am 09:20 Cloudy 43 6.1 40 4.4 89 89 NNE 7 11 30.36 1028 10 16.09344 0 0
9:52 am 09:52 Cloudy 45 7.2 40 4.4 83 83 N 6 9 30.33 1027 10 16.09344 0 0
10:09 am 10:09 Cloudy 45 7.2 39 3.9 80 80 N 7 11 30.33 1027 10 16.09344 0 0
10:35 am 10:35 Mostly Cloudy 45 7.2 40 4.4 83 83 NNW 9 15 30.36 1028 10 16.09344 0 0
10:52 am 10:52 Mostly Cloudy 46 7.8 40 4.4 79 79 NNW 9 15 30.33 1027 10 16.09344 0 0
11:36 am 11:36 Partly Cloudy 47 8.3 39 3.9 74 74 NNW 7 11 30.33 1027 10 16.09344 0 0
11:52 am 11:52 Partly Cloudy 48 8.9 39 3.9 71 71 N 6 9 30.3 1026 10 16.09344 0 0
12:52 pm 12:52 Partly Cloudy 51 10.6 40 4.4 66 66 NNW 8 13 30.3 1026 10 16.09344 0 0
1:52 pm 13:52 Mostly Sunny 53 11.7 40 4.4 61 61 N 7 11 30.27 1025 10 16.09344 0 0
2:52 pm 14:52 Mostly Sunny 53 11.7 40 4.4 61 61 NW 9 15 30.27 1025 10 16.09344 0 0
3:52 pm 15:52 Mostly Sunny 51 10.6 40 4.4 66 66 NW 10 17 30.27 1025 10 16.09344 0 0
4:52 pm 16:52 Mostly Sunny 50 10 39 3.9 66 66 NW 10 17 30.3 1026 10 16.09344 0 0
5:52 pm 17:52 Mostly Clear 49 9.4 39 3.9 69 69 NNW 12 19 30.3 1026 10 16.09344 0 0
6:52 pm 18:52 Mostly Clear 47 8.3 39 3.9 74 74 NNW 8 13 30.33 1027 10 16.09344 0 0
7:52 pm 19:52 Mostly Clear 46 7.8 39 3.9 77 77 NNW 8 13 30.33 1027 10 16.09344 0 0
8:52 pm 20:52 Mostly Clear 45 7.2 39 3.9 80 80 N 7 11 30.33 1027 10 16.09344 0 0
9:52 pm 21:52 Mostly Clear 43 6.1 38 3.3 82 82 N 6 9 30.33 1027 10 16.09344 0 0
10:52 pm 22:52 Mostly Clear 43 6.1 38 3.3 82 82 NNW 7 11 30.33 1027 10 16.09344 0 0
11:52 pm 23:52 Mostly Clear 43 6.1 38 3.3 82 82 Calm 30.33 1027 9 14.484096 0 0

Powered by AerisWeather